Regional Weather Roundup
Issued by NWS Goodland, KS

Home | Current Version | Previous Version | Text Only | Print | Product List | Glossary Off
Versions: 1 2 3 4 5 6 7 8 9 10 11 12 13 14 15 16 17 18 19 20 21 22 23 24 25 26 27 28 29 30 31 32 33 34 35 36 37 38 39 40 41 42 43 44 45 46 47 48 49 50

000
ASUS43 KGLD 011308
RWRGLD

GOODLAND FORECAST AREA HOURLY WEATHER ROUNDUP
NATIONAL WEATHER SERVICE GOODLAND KS
600 AM MST SUN FEB 01 2015

...OFFICIAL OBSERVATIONS...

CITY           SKY/WX    TMP DP  RH WIND       PRES   REMARKS
GOODLAND KS    MOCLDY    19  15  84 N23G33    30.08R WCI   2
HILL CITY KS   CLOUDY    18  12  77 N25G37    30.07R WCI   0
IMPERIAL NEB   MOCLDY    12   6  77 N22G31    30.14R WCI  -7
MCCOOK NEB     CLOUDY    16   8  71 N26G35    30.12R WCI  -3
AKRON CO       CLOUDY    20  18  92 N15       30.08R WCI   6
BURLINGTON CO  CLOUDY    22  18  85 N24G31    30.05R WCI   5
LIMON CO       FLURRIES  19  15  84 N21       30.05F WCI   3
$$

...UNOFFICIAL OBSERVATIONS...

CITY           SKY/WX    TMP DP  RH WIND       PRES   REMARKS
COLBY KS       CLOUDY    18  18 100 NW23G32   30.09R WCI   0
GOVE KS          N/A     19  32 100 MISG        N/A
NORTON KS      MOCLDY    14   7  73 NW25G33   30.07R WCI  -5
SHARON SPRINGS   N/A     23  19  85 N24G35      N/A  WCI   7
KIT CARSON CO    N/A     24  20  83 MISG        N/A
YUMA CO          N/A     20  16  83 N15         N/A  WCI   6
$$



USA.gov is the U.S. government's official web portal to all federal, state and local government web resources and services.